SCP
0 0 0 0 0 0 0 0 0 0 0 0 0 0 0 0 0 0 0 0 0 0 0 0 0 0 0 0 0 0 0 0 0 0 0 0 0 0 0 0 0 0 0
0 0 0 0 0 0 0 0 0 0 0 0 0 0 0 0 0 0 0 0 0 0 0 0 0 0 0 0 0 0 0 0 0 0 0 0 0 0 0 0 0 0 0
0 0 0 0 0 0 0 0 0 0 0 0 0 0 0 0 0 0 0 0 0 0 0 0 0 0 0 0 0 0 0 0 0 0 0 0 0 0 0 0 0 0 0
0 0 0 0 0 0 0 0 0 0 0 0 0 0 0 0 0 0 0 0 0 0 0 0 0 0 0 0 0 0 0 0 0 0 0 0 0 0 0 0 0 0 0
0 0 0 0 0 0 0 0 0 0 0 0 0 0 0 0 0 0 0 0 0 0 0 0 0 0 0 0 0 0 0 0 0 0 0 0 0 0 0 0 0 0 0
0 0 0 0 0 0 0 0 0 0 0 0 0 0 0 0 0 0 0 0 0 0 0 0 0 0 0 0 0 0 0 0 0 0 0 0 0 0 0 0 0 0 0
0 0 0 0 0 0 0 0 0 0 0 0 0 0 0 0 0 0 0 0 0 0 0 0 0 0 0 0 0 0 0 0 0 0 0 0 0 0 0 0 0 0 0
0 0 0 0 0 0 0 0 0 0 0 0 0 0 0 0 0 0 0 0 0 0 0 0 0 0 0 0 0 0 0 0 0 0 0 0 0 0 0 0 0 0 0
0 0 0 0 0 0 0 0 0 0 0 0 0 0 0 0 0 0 0 0 0 0 0 0 0 0 0 0 0 0 0 0 0 0 0 0 0 0 0 0 0 0 0
0 0 0 0 0 0 0 0 0 0 0 0 0 0 0 0 0 0 0 0 0 0 0 0 0 0 0 0 0 0 0 0 0 0 0 0 0 0 0 0 0 0 0
0 0 0 0 0 0 0 0 0 0 0 0 0 0 0 0 0 0 0 0 0 0 0 0 0 0 0 0 0 0 0 0 0 0 0 0 0 0 0 0 0 0 0
0 0 0 0 0 0 0 0 0 0 0 0 0 0 0 0 0 0 0 0 0 0 0 0 0 0 0 0 0 0 0 0 0 0 0 0 0 0 0 0 0 0 0
0 0 0 0 0 0 0 0 0 0 0 0 0 0 0 0 0 0 0 0 0 0 0 0 0 0 0 0 0 0 0 0 0 0 0 0 0 0 0 0 0 0 0
0 0 0 0 0 0 0 0 0 0 0 0 0 0 0 0 0 0 0 0 0 0 0 0 0 0 0 0 0 0 0 0 0 0 0 0 0 0 0 0 0 0 0
0 0 0 0 0 0 0 0 0 0 0 0 0 0 0 0 0 0 0 0 0 0 0 0 0 0 0 0 0 0 0 0 0 0 0 0 0 0 0 0 0 0 0
0 0 0 0 0 0 0 0 0 0 0 0 0 0 0 0 0 0 0 0 0 0 0 0 0 0 0 0 0 0 0 0 0 0 0 0 0 0 0 0 0 0 0
0 0 0 0 0 0 0 0 0 0 0 0 0 0 0 0 0 0 0 0 0 0 0 0 0 0 0 0 0 0 0 0 0 0 0 0 0 0 0 0 0 0 0
0 0 0 0 0 0 0 0 0 0 0 0 0 0 0 0 0 0 0 0 0 0 0 0 0 0 0 0 0 0 0 0 0 0 0 0 0 0 0 0 0 0 0
0 0 0 0 0 0 0 0 0 0 0 0 0 0 0 0 0 0 0 0 0 0 0 0 0 0 0 0 0 0 0 0 0 0 0 0 0 0 0 0 0 0 0
0 0 0 0 0 0 0 0 0 0 0 0 0 0 0 0 0 0 0 0 0 0 0 0 0 0 0 0 0 0 0 0 0 0 0 0 0 0 0 0 0 0 0
0 0 0 0 0 0 0 0 0 0 0 0 0 0 0 0 0 0 0 0 0 0 0 0 0 0 0 0 0 0 0 0 0 0 0 0 0 0 0 0 0 0 0
0 0 0 0 0 0 0 0 0 0 0 0 0 0 0 0 0 0 0 0 0 0 0 0 0 0 0 0 0 0 0 0 0 0 0 0 0 0 0 0 0 0 0
0 0 0 0 0 0 0 0 0 0 0 0 0 0 0 0 0 0 0 0 0 0 0 0 0 0 0 0 0 0 0 0 0 0 0 0 0 0 0 0 0 0 0
0 0 0 0 0 0 0 0 0 0 0 0 0 0 0 0 0 0 0 0 0 0 0 0 0 0 0 0 0 0 0 0 0 0 0 0 0 0 0 0 0 0 0
0 0 0 0 0 0 0 0 0 0 0 0 0 0 0 0 0 0 0 0 0 0 0 0 0 0 0 0 0 0 0 0 0 0 0 0 0 0 0 0 0 0 0
0 0 0 0 0 0 0 0 0 0 0 0 0 0 0 0 0 0 0 0 0 0 0 0 0 0 0 0 0 0 0 0 0 0 0 0 0 0 0 0 0 0 0
Wind_Speed_500mb
15 16 9 9 8 10 11 12 10 8 6 5 6 5 5 3 6 10 7 8 9 7 6 5 6 6 5 3 6 3 5 4 11 15 14 15 16 17 19 19 18 19 19
21 21 17 14 13 11 13 15 13 11 9 7 7 7 5 3 5 11 13 10 9 8 9 11 12 12 13 10 12 10 9 13 13 15 17 19 17 19 20 21 20 21 21
28 26 22 21 19 17 16 17 16 14 13 12 11 12 13 15 16 16 19 22 19 17 19 17 18 19 21 20 18 16 16 17 18 18 20 23 22 24 25 25 27 24 23
36 32 29 26 25 22 19 18 18 18 17 15 16 17 20 24 26 29 28 28 32 29 27 26 26 26 26 25 24 22 21 22 24 26 27 29 28 31 30 31 31 30 27
41 39 35 31 30 27 24 21 19 19 21 22 24 26 27 30 30 34 37 38 36 38 41 37 37 34 34 34 30 29 30 31 32 31 33 36 35 39 40 40 38 37 35
41 44 42 36 35 32 30 26 26 28 29 32 33 36 38 41 41 43 46 47 48 46 46 45 48 47 43 43 42 38 38 40 40 43 42 41 45 45 46 46 45 44 45
37 38 40 42 46 39 35 34 34 33 36 38 41 46 47 51 51 52 55 56 58 55 53 52 50 55 55 52 52 50 48 45 51 52 54 56 54 52 53 53 54 52 54
45 41 41 43 41 38 41 41 42 44 44 43 45 49 52 57 57 53 46 43 45 48 47 46 45 53 56 55 58 60 59 57 53 56 62 63 65 65 63 63 62 61 59
58 56 46 49 48 46 45 42 46 49 51 53 55 51 23 18 39 46 46 49 50 53 49 48 54 59 60 60 60 65 66 66 65 64 65 71 74 76 72 69 68 68 68
61 57 52 52 55 52 56 53 55 58 58 58 62 67 62 67 54 42 57 62 60 69 77 77 69 68 67 66 68 71 70 76 79 79 79 78 77 78 87 81 75 76 80
59 59 60 58 57 56 54 59 55 59 58 61 58 66 62 64 66 69 71 68 65 67 70 70 74 71 73 72 76 74 75 76 81 85 87 91 89 88 85 80 88 84 84
51 51 55 54 57 49 57 53 55 52 52 52 53 55 57 64 61 60 65 69 71 76 74 76 72 73 69 68 72 70 68 72 74 77 82 88 93 98 101 96 92 86 90
43 39 37 43 47 48 48 48 46 48 47 47 56 57 53 57 54 53 59 67 72 81 85 85 83 72 68 68 60 56 54 54 60 66 72 75 79 84 95 104 100 100 97
39 37 38 40 41 44 45 46 48 50 47 51 50 49 49 49 51 51 57 64 73 79 84 87 87 81 72 59 58 58 59 58 56 59 63 71 75 76 78 85 92 100 105
41 40 39 40 40 41 43 45 45 50 49 50 46 50 51 49 53 55 55 59 64 69 75 72 77 78 76 76 78 72 72 69 66 66 67 69 74 77 75 77 80 85 96
38 39 40 40 40 42 44 47 49 46 51 47 48 49 50 51 53 56 58 61 64 73 95 85 90 94 91 88 80 77 74 71 71 71 69 67 69 71 78 81 82 82 86
35 36 35 37 39 39 41 46 45 43 45 46 46 49 51 51 55 57 58 60 64 69 86 101 95 92 93 93 91 86 82 78 75 68 68 69 72 75 78 81 82 84 84
27 27 30 31 31 29 29 31 32 35 38 40 43 46 48 50 53 53 56 60 62 65 76 98 93 97 95 95 98 98 96 90 84 81 74 71 72 75 76 80 83 86 85
17 15 15 16 17 20 24 26 28 28 31 34 37 41 45 49 53 54 57 60 65 68 72 87 105 96 101 98 101 98 98 98 97 88 81 77 73 73 77 80 83 85 85
10 9 7 5 8 13 19 23 27 30 33 37 40 44 47 50 53 55 58 61 64 68 71 80 94 100 96 94 93 91 99 97 101 100 94 87 83 77 77 78 82 84 85
3 2 5 10 14 21 27 33 37 40 44 47 48 51 54 55 56 58 62 64 66 70 74 82 92 99 97 86 81 86 93 95 107 105 100 100 90 84 80 78 80 78 79
5 9 12 14 18 23 30 36 43 46 48 52 56 58 60 63 65 66 67 69 70 72 75 77 90 90 104 95 90 85 83 92 97 91 89 108 100 103 96 89 84 78 78
7 12 16 20 23 30 38 45 51 54 57 60 64 68 70 70 73 75 75 75 74 71 73 75 85 90 97 90 83 88 89 85 97 97 96 110 96 109 106 102 91 80 74
15 20 24 29 33 39 46 52 57 62 65 66 68 69 71 72 71 73 75 76 76 74 72 73 73 83 84 88 83 85 92 92 96 92 90 96 98 105 105 102 91 78 67
23 28 34 37 40 42 47 52 58 63 66 68 68 67 68 70 69 69 71 75 78 78 77 71 73 76 81 83 83 80 86 84 84 88 90 87 90 95 96 91 83 70 62
34 34 36 40 44 46 48 51 56 62 66 68 71 72 72 72 72 63 63 70 83 91 86 83 82 82 80 80 78 73 78 79 84 83 67 62 78 77 67 69 57 42 47
Wind_Direction_500mb
225 244 246 234 199 209 197 202 195 191 187 187 184 178 162 190 218 322 12 356 17 14 342 338 329 328 325 316 304 281 292 259 192 173 180 185 183 186 176 175 170 164 150
233 233 245 237 236 226 222 219 217 218 222 229 231 226 230 266 257 279 318 323 308 317 317 314 315 309 301 299 289 285 255 229 228 232 203 194 208 194 200 195 188 184 182
237 238 241 238 238 233 232 229 230 236 242 254 256 257 269 282 293 289 294 306 304 309 313 310 307 301 301 297 301 285 267 250 239 231 220 212 210 206 206 199 200 191 187
236 241 243 242 240 237 235 234 238 245 255 265 272 279 287 291 298 302 296 292 299 300 296 302 299 298 290 281 275 275 260 241 242 243 238 230 222 219 218 217 211 208 206
235 241 245 246 245 241 240 243 247 253 260 267 270 272 277 280 281 283 285 286 286 288 293 293 290 287 287 286 269 258 254 250 247 249 244 234 233 231 227 224 218 221 214
232 241 243 246 250 245 240 244 254 255 261 264 267 273 277 282 284 287 288 288 288 286 280 279 285 289 281 280 276 265 254 257 254 253 245 244 239 237 236 236 229 225 225
238 235 241 243 246 247 246 250 254 257 259 264 271 278 281 283 286 285 285 288 286 285 288 283 280 288 285 280 279 276 269 254 259 262 266 261 250 245 244 240 237 235 230
240 241 238 244 252 246 246 252 261 265 268 267 269 274 281 285 287 291 288 286 290 288 289 292 291 290 282 282 281 281 277 270 257 258 264 265 262 259 250 244 242 240 237
244 252 250 248 249 248 249 258 261 265 269 271 274 269 265 258 282 293 291 287 285 289 290 289 296 296 293 285 285 285 286 283 271 263 255 257 263 266 260 253 247 243 239
244 250 253 255 255 258 257 259 264 268 268 272 276 271 279 275 270 286 283 285 285 286 287 293 292 291 296 288 287 287 285 288 284 276 272 262 252 257 256 258 252 249 245
243 246 251 255 258 261 260 265 265 267 277 272 284 274 277 279 278 272 278 294 292 291 288 290 288 291 290 291 289 285 281 287 285 280 278 276 268 256 252 252 255 249 247
243 246 250 250 254 259 259 261 266 267 272 271 276 286 273 277 283 285 283 291 291 296 294 290 287 288 291 289 290 291 286 284 286 281 279 279 277 271 262 258 251 253 251
245 248 251 250 256 259 262 264 266 269 272 278 279 287 282 283 283 287 289 291 293 297 294 294 298 299 297 296 293 292 289 286 286 286 285 283 280 277 273 269 262 253 252
255 255 254 253 255 257 261 264 272 275 273 282 277 283 284 284 285 288 289 293 295 294 295 295 301 302 305 306 304 306 302 299 295 291 289 286 285 283 279 274 270 264 256
252 254 253 254 256 259 263 270 273 273 278 280 279 287 285 285 287 290 291 290 292 289 291 294 296 300 303 304 305 306 304 303 300 294 290 286 282 281 279 276 270 266 263
253 256 255 256 257 261 263 267 266 273 278 278 284 284 285 286 287 287 288 289 289 291 290 290 293 298 301 302 304 301 300 299 297 297 295 289 285 282 279 278 273 269 263
248 254 256 258 257 260 260 267 272 276 277 280 283 286 288 288 286 286 287 286 285 284 287 294 296 302 301 303 303 303 302 299 298 294 293 291 287 283 279 278 276 272 267
238 243 248 255 259 261 266 270 272 276 282 286 289 291 294 297 297 298 298 298 297 294 292 297 300 301 302 303 304 305 305 304 303 302 301 292 285 284 283 281 281 279 274
221 230 245 257 269 278 282 284 289 293 296 300 303 304 305 305 305 305 306 303 300 299 294 296 298 300 301 303 304 303 303 304 304 305 303 300 295 287 283 281 281 279 277
186 196 212 249 287 298 300 299 298 299 300 301 302 302 303 303 304 304 302 299 298 296 295 294 297 299 299 301 300 299 299 302 302 306 303 300 297 293 285 283 280 279 278
156 272 305 314 315 313 309 305 304 304 303 303 304 304 302 301 300 299 299 300 299 298 296 295 294 297 296 297 295 297 296 298 302 301 302 302 303 298 293 291 287 282 278
330 322 323 327 325 318 313 311 310 311 311 310 310 309 309 309 307 305 302 299 297 297 294 293 294 291 296 296 296 293 293 295 295 296 295 297 297 295 295 291 288 285 281
340 329 333 331 328 321 317 315 313 315 315 314 312 310 306 305 304 304 303 301 299 297 294 294 293 293 296 297 293 293 294 289 288 291 291 290 290 292 295 294 295 291 286
333 333 334 328 331 323 317 317 314 311 309 307 305 304 304 305 306 306 305 304 304 303 305 303 300 300 299 298 295 295 294 293 291 291 293 283 291 290 293 294 295 290 282
333 333 333 322 320 320 317 316 314 312 310 308 307 306 306 307 308 309 309 308 307 307 309 306 302 298 300 298 291 293 289 286 285 288 291 288 288 288 291 291 291 289 280
326 321 327 327 325 324 324 323 321 319 317 316 315 316 316 316 316 315 311 310 306 309 311 310 308 307 307 301 298 293 292 288 287 286 296 286 288 284 281 288 295 297 284
Wind_Speed_850mb
15 16 9 9 8 10 11 12 10 8 6 5 6 5 5 3 6 10 7 8 9 7 6 5 6 6 5 3 6 3 5 4 11 15 14 15 16 17 19 19 18 19 19
21 21 17 14 13 11 13 15 13 11 9 7 7 7 5 3 5 11 13 10 9 8 9 11 12 12 13 10 12 10 9 13 13 15 17 19 17 19 20 21 20 21 21
28 26 22 21 19 17 16 17 16 14 13 12 11 12 13 15 16 16 19 22 19 17 19 17 18 19 21 20 18 16 16 17 18 18 20 23 22 24 25 25 27 24 23
36 32 29 26 25 22 19 18 18 18 17 15 16 17 20 24 26 29 28 28 32 29 27 26 26 26 26 25 24 22 21 22 24 26 27 29 28 31 30 31 31 30 27
41 39 35 31 30 27 24 21 19 19 21 22 24 26 27 30 30 34 37 38 36 38 41 37 37 34 34 34 30 29 30 31 32 31 33 36 35 39 40 40 38 37 35
41 44 42 36 35 32 30 26 26 28 29 32 33 36 38 41 41 43 46 47 48 46 46 45 48 47 43 43 42 38 38 40 40 43 42 41 45 45 46 46 45 44 45
37 38 40 42 46 39 35 34 34 33 36 38 41 46 47 51 51 52 55 56 58 55 53 52 50 55 55 52 52 50 48 45 51 52 54 56 54 52 53 53 54 52 54
45 41 41 43 41 38 41 41 42 44 44 43 45 49 52 57 57 53 46 43 45 48 47 46 45 53 56 55 58 60 59 57 53 56 62 63 65 65 63 63 62 61 59
58 56 46 49 48 46 45 42 46 49 51 53 55 51 23 18 39 46 46 49 50 53 49 48 54 59 60 60 60 65 66 66 65 64 65 71 74 76 72 69 68 68 68
61 57 52 52 55 52 56 53 55 58 58 58 62 67 62 67 54 42 57 62 60 69 77 77 69 68 67 66 68 71 70 76 79 79 79 78 77 78 87 81 75 76 80
59 59 60 58 57 56 54 59 55 59 58 61 58 66 62 64 66 69 71 68 65 67 70 70 74 71 73 72 76 74 75 76 81 85 87 91 89 88 85 80 88 84 84
51 51 55 54 57 49 57 53 55 52 52 52 53 55 57 64 61 60 65 69 71 76 74 76 72 73 69 68 72 70 68 72 74 77 82 88 93 98 101 96 92 86 90
43 39 37 43 47 48 48 48 46 48 47 47 56 57 53 57 54 53 59 67 72 81 85 85 83 72 68 68 60 56 54 54 60 66 72 75 79 84 95 104 100 100 97
39 37 38 40 41 44 45 46 48 50 47 51 50 49 49 49 51 51 57 64 73 79 84 87 87 81 72 59 58 58 59 58 56 59 63 71 75 76 78 85 92 100 105
41 40 39 40 40 41 43 45 45 50 49 50 46 50 51 49 53 55 55 59 64 69 75 72 77 78 76 76 78 72 72 69 66 66 67 69 74 77 75 77 80 85 96
38 39 40 40 40 42 44 47 49 46 51 47 48 49 50 51 53 56 58 61 64 73 95 85 90 94 91 88 80 77 74 71 71 71 69 67 69 71 78 81 82 82 86
35 36 35 37 39 39 41 46 45 43 45 46 46 49 51 51 55 57 58 60 64 69 86 101 95 92 93 93 91 86 82 78 75 68 68 69 72 75 78 81 82 84 84
27 27 30 31 31 29 29 31 32 35 38 40 43 46 48 50 53 53 56 60 62 65 76 98 93 97 95 95 98 98 96 90 84 81 74 71 72 75 76 80 83 86 85
17 15 15 16 17 20 24 26 28 28 31 34 37 41 45 49 53 54 57 60 65 68 72 87 105 96 101 98 101 98 98 98 97 88 81 77 73 73 77 80 83 85 85
10 9 7 5 8 13 19 23 27 30 33 37 40 44 47 50 53 55 58 61 64 68 71 80 94 100 96 94 93 91 99 97 101 100 94 87 83 77 77 78 82 84 85
3 2 5 10 14 21 27 33 37 40 44 47 48 51 54 55 56 58 62 64 66 70 74 82 92 99 97 86 81 86 93 95 107 105 100 100 90 84 80 78 80 78 79
5 9 12 14 18 23 30 36 43 46 48 52 56 58 60 63 65 66 67 69 70 72 75 77 90 90 104 95 90 85 83 92 97 91 89 108 100 103 96 89 84 78 78
7 12 16 20 23 30 38 45 51 54 57 60 64 68 70 70 73 75 75 75 74 71 73 75 85 90 97 90 83 88 89 85 97 97 96 110 96 109 106 102 91 80 74
15 20 24 29 33 39 46 52 57 62 65 66 68 69 71 72 71 73 75 76 76 74 72 73 73 83 84 88 83 85 92 92 96 92 90 96 98 105 105 102 91 78 67
23 28 34 37 40 42 47 52 58 63 66 68 68 67 68 70 69 69 71 75 78 78 77 71 73 76 81 83 83 80 86 84 84 88 90 87 90 95 96 91 83 70 62
34 34 36 40 44 46 48 51 56 62 66 68 71 72 72 72 72 63 63 70 83 91 86 83 82 82 80 80 78 73 78 79 84 83 67 62 78 77 67 69 57 42 47
Wind_Direction_850mb
225 244 246 234 199 209 197 202 195 191 187 187 184 178 162 190 218 322 12 356 17 14 342 338 329 328 325 316 304 281 292 259 192 173 180 185 183 186 176 175 170 164 150
233 233 245 237 236 226 222 219 217 218 222 229 231 226 230 266 257 279 318 323 308 317 317 314 315 309 301 299 289 285 255 229 228 232 203 194 208 194 200 195 188 184 182
237 238 241 238 238 233 232 229 230 236 242 254 256 257 269 282 293 289 294 306 304 309 313 310 307 301 301 297 301 285 267 250 239 231 220 212 210 206 206 199 200 191 187
236 241 243 242 240 237 235 234 238 245 255 265 272 279 287 291 298 302 296 292 299 300 296 302 299 298 290 281 275 275 260 241 242 243 238 230 222 219 218 217 211 208 206
235 241 245 246 245 241 240 243 247 253 260 267 270 272 277 280 281 283 285 286 286 288 293 293 290 287 287 286 269 258 254 250 247 249 244 234 233 231 227 224 218 221 214
232 241 243 246 250 245 240 244 254 255 261 264 267 273 277 282 284 287 288 288 288 286 280 279 285 289 281 280 276 265 254 257 254 253 245 244 239 237 236 236 229 225 225
238 235 241 243 246 247 246 250 254 257 259 264 271 278 281 283 286 285 285 288 286 285 288 283 280 288 285 280 279 276 269 254 259 262 266 261 250 245 244 240 237 235 230
240 241 238 244 252 246 246 252 261 265 268 267 269 274 281 285 287 291 288 286 290 288 289 292 291 290 282 282 281 281 277 270 257 258 264 265 262 259 250 244 242 240 237
244 252 250 248 249 248 249 258 261 265 269 271 274 269 265 258 282 293 291 287 285 289 290 289 296 296 293 285 285 285 286 283 271 263 255 257 263 266 260 253 247 243 239
244 250 253 255 255 258 257 259 264 268 268 272 276 271 279 275 270 286 283 285 285 286 287 293 292 291 296 288 287 287 285 288 284 276 272 262 252 257 256 258 252 249 245
243 246 251 255 258 261 260 265 265 267 277 272 284 274 277 279 278 272 278 294 292 291 288 290 288 291 290 291 289 285 281 287 285 280 278 276 268 256 252 252 255 249 247
243 246 250 250 254 259 259 261 266 267 272 271 276 286 273 277 283 285 283 291 291 296 294 290 287 288 291 289 290 291 286 284 286 281 279 279 277 271 262 258 251 253 251
245 248 251 250 256 259 262 264 266 269 272 278 279 287 282 283 283 287 289 291 293 297 294 294 298 299 297 296 293 292 289 286 286 286 285 283 280 277 273 269 262 253 252
255 255 254 253 255 257 261 264 272 275 273 282 277 283 284 284 285 288 289 293 295 294 295 295 301 302 305 306 304 306 302 299 295 291 289 286 285 283 279 274 270 264 256
252 254 253 254 256 259 263 270 273 273 278 280 279 287 285 285 287 290 291 290 292 289 291 294 296 300 303 304 305 306 304 303 300 294 290 286 282 281 279 276 270 266 263
253 256 255 256 257 261 263 267 266 273 278 278 284 284 285 286 287 287 288 289 289 291 290 290 293 298 301 302 304 301 300 299 297 297 295 289 285 282 279 278 273 269 263
248 254 256 258 257 260 260 267 272 276 277 280 283 286 288 288 286 286 287 286 285 284 287 294 296 302 301 303 303 303 302 299 298 294 293 291 287 283 279 278 276 272 267
238 243 248 255 259 261 266 270 272 276 282 286 289 291 294 297 297 298 298 298 297 294 292 297 300 301 302 303 304 305 305 304 303 302 301 292 285 284 283 281 281 279 274
221 230 245 257 269 278 282 284 289 293 296 300 303 304 305 305 305 305 306 303 300 299 294 296 298 300 301 303 304 303 303 304 304 305 303 300 295 287 283 281 281 279 277
186 196 212 249 287 298 300 299 298 299 300 301 302 302 303 303 304 304 302 299 298 296 295 294 297 299 299 301 300 299 299 302 302 306 303 300 297 293 285 283 280 279 278
156 272 305 314 315 313 309 305 304 304 303 303 304 304 302 301 300 299 299 300 299 298 296 295 294 297 296 297 295 297 296 298 302 301 302 302 303 298 293 291 287 282 278
330 322 323 327 325 318 313 311 310 311 311 310 310 309 309 309 307 305 302 299 297 297 294 293 294 291 296 296 296 293 293 295 295 296 295 297 297 295 295 291 288 285 281
340 329 333 331 328 321 317 315 313 315 315 314 312 310 306 305 304 304 303 301 299 297 294 294 293 293 296 297 293 293 294 289 288 291 291 290 290 292 295 294 295 291 286
333 333 334 328 331 323 317 317 314 311 309 307 305 304 304 305 306 306 305 304 304 303 305 303 300 300 299 298 295 295 294 293 291 291 293 283 291 290 293 294 295 290 282
333 333 333 322 320 320 317 316 314 312 310 308 307 306 306 307 308 309 309 308 307 307 309 306 302 298 300 298 291 293 289 286 285 288 291 288 288 288 291 291 291 289 280
326 321 327 327 325 324 324 323 321 319 317 316 315 316 316 316 316 315 311 310 306 309 311 310 308 307 307 301 298 293 292 288 287 286 296 286 288 284 281 288 295 297 284